Kosmos-1327

operational
NORAD ID: 12982 Int'l Des: 1981-116 Owner: GUKOS Country: SU
LEOCIRCULAR

关于 Kosmos-1327

正在加载描述...

实时位置

正在加载3D地球...

即将过境

高度历史

Altitude vs Time

uPlot chart will show altitude changes over time

两行轨道根数

1 12982U 81116H 26062.43500388 -.00000018 00000-0 -23151-4 0 9993
2 12982 73.9808 55.0488 0077724 272.0710 243.3084 12.31646164989986
Epoch: Mar 3, 2026 • Age: 22 hours

当前状态

高度 1616.1 km
速度 7.04 km/s
星下点 74.04°N, 13.52°E
发射日期 Nov 28, 1981
运行时间 44.2 years
类型 other

技术详情

分类 Payload
质量 60.00 kg
干质量 60.00 kg
总质量 60.00 kg
长度 0.80 m
直径 0.80 m
跨度 0.80 m
形状 Poly
制造商 NPOPM
平台类型 Strela-1 11F625
阶段状态 In Orbit
所有者/国家 GUKOS/SU

大型星座

Loading constellations...